Reflectivity
-20 -20 -20 -20 -20 -20 -20 -20 -20 -20 -20 -20 -20 -20 -20 -20 -20 -20 -20 -20 -20 -20
-20 -20 -20 -20 -20 -20 -20 -20 -20 -20 -20 -20 -20 -20 -20 -20 -20 -20 -20 -20 -20 -20
-20 -20 -20 -20 -20 -20 -20 -20 -20 -20 -20 -20 -20 -20 -20 -20 -20 -20 -20 -20 -20 -20
-20 -20 -20 -20 -20 -20 -20 -20 -20 -20 -20 -20 -20 -20 -20 -20 -20 -20 -20 -20 -20 -20
-20 -20 -20 -20 -20 -20 -20 -20 -20 -20 -20 -20 -20 -20 -20 -20 -20 -20 -20 -20 -20 -20
-20 -20 -20 -20 -20 -20 -20 -20 -20 -20 -20 -20 -20 -20 -20 -20 -20 -20 -20 -20 -20 -20
-20 -20 -20 -20 -17 -20 -20 -20 -20 -20 -20 -20 -20 -20 -20 -20 -20 -20 -20 -20 -20 -20
-20 -20 -20 -20 -20 -20 -20 -20 -20 -20 -20 -20 -20 -20 -20 -20 -20 -20 -20 -20 -20 -20
-20 -20 -13 35 35 -7 -20 -20 -20 -20 -20 -20 -20 -20 -20 -20 -20 -20 -20 -20 -20 -20
-20 -17 8 21 32 33 20 -20 -20 -20 -20 -20 -20 -20 -20 -20 -20 -20 -20 -20 -20 -20
23 32 34 18 31 29 31 27 -17 -20 -20 -20 -20 -20 -20 -20 -20 -20 -20 -20 -20 -20
45 33 27 16 27 28 37 26 19 -5 -20 -20 -20 -20 -20 -20 -20 -20 -20 -20 -20 -20
32 26 -19 -14 -20 21 26 25 37 7 -9 -20 -20 -19 -20 -20 -20 -20 -20 -20 -20 -20
-20 -20 -20 -20 -20 -20 26 24 34 27 -1 -20 14 -11 -20 -20 -20 -20 -20 -20 -20 -20
Wind_Speed
6 4 4 5 4 4 4 4 5 5 4 4 3 3 3 2 3 4 3 4 3 2
6 7 6 6 4 4 4 4 5 5 5 4 4 4 3 2 2 2 2 3 2 1
8 7 6 6 6 5 5 5 5 4 4 4 3 3 3 2 1 3 1 2 3 2
7 7 6 6 5 6 5 7 7 6 5 5 4 3 2 2 2 2 2 2 2 2
5 5 6 6 7 8 8 6 6 5 5 4 4 4 4 4 3 3 3 2 2 2
5 5 4 4 4 6 6 5 6 6 6 5 4 4 4 4 4 3 4 3 3 3
11 11 9 7 5 5 5 6 6 6 6 6 5 5 4 3 3 3 3 2 3 3
5 4 5 9 10 7 5 6 7 6 5 4 5 5 6 6 5 4 4 3 3 3
6 5 1 3 4 7 6 5 4 4 5 5 5 9 11 7 4 4 4 4 3 4
10 8 5 2 1 6 2 2 4 4 5 5 4 7 12 11 5 4 4 4 4 3
7 5 4 8 7 6 4 5 4 4 5 4 4 8 9 11 5 3 3 3 4 4
13 15 15 11 10 7 7 6 5 4 5 5 4 7 9 7 4 3 3 3 3 3
7 10 14 12 13 10 7 7 6 5 4 5 5 7 9 7 3 2 2 3 4 4
5 7 12 14 12 13 11 10 9 6 3 4 4 5 9 11 5 3 2 2 2 3
Wind_Direction
199 190 188 180 177 172 174 164 155 134 130 125 118 109 89 98 100 93 88 95 106 108
192 185 184 185 177 175 160 153 148 150 142 128 113 104 86 73 71 71 70 76 76 90
191 188 184 166 173 163 141 137 145 142 128 124 129 122 121 124 115 121 86 66 70 60
194 189 170 172 160 165 150 160 162 160 156 158 144 123 114 96 101 94 104 110 81 59
186 178 175 169 172 162 164 163 155 153 167 169 157 155 144 136 125 166 156 140 98 101
181 170 180 184 168 165 150 153 153 163 176 179 171 164 171 166 154 143 167 167 186 195
182 175 171 165 178 165 164 160 175 186 183 179 178 179 170 156 162 162 173 188 208 212
185 180 158 162 167 159 172 190 189 172 183 182 180 192 182 178 181 183 196 214 237 226
83 94 32 304 181 153 175 191 177 189 176 190 209 188 179 174 172 182 189 206 255 306
97 86 30 348 276 100 270 140 179 188 184 200 223 184 174 166 168 179 199 195 224 236
99 92 185 170 185 154 200 190 186 192 199 194 217 198 178 166 160 173 194 214 221 283
170 200 215 202 180 164 169 189 181 187 190 197 209 215 196 163 157 180 239 230 220 283
267 222 191 187 177 172 181 204 160 199 198 204 207 219 204 163 166 181 252 287 268 269
283 244 222 207 185 169 188 180 163 156 172 236 223 220 199 173 169 174 208 235 263 275